Location: Daytona Beach
(29.2106°N, 81.0231°W)
Time: 17:14:44
(UTC-04:00)

NO-84 - Visible Passes

Search period start: 19 September 2021 00:00
Search period end: 29 September 2021 00:00
Orbit: 297 x 378 km, 55.0° (Epoch: 14 September)

Date Brightness Start Highest point End Pass type
(mag) Time Alt. Az. Time Alt. Az. Time Alt. Az.
24 Sep ? 05:58:38 10° NNE 06:00:09 13° NE 06:01:41 10° ENE visible
25 Sep ? 06:17:50 10° NNW 06:20:44 42° NE 06:23:39 10° ESE visible
26 Sep ? 05:06:18 10° NE 05:06:18 10° NE 05:06:50 10° NE visible
26 Sep ? 06:38:07 10° NW 06:40:59 39° SW 06:43:51 10° SSE visible
27 Sep ? 05:27:15 28° ENE 05:27:15 28° ENE 05:29:23 10° ESE visible
27 Sep ? 20:08:52 10° S 20:10:31 21° SE 20:10:31 21° SE visible
28 Sep ? 05:48:16 24° SSE 05:48:16 24° SSE 05:49:40 10° SSE visible
28 Sep ? 20:28:17 10° SW 20:30:53 63° NW 20:31:14 54° N visible
